Observations for Trim Patrick St
| Time | AQI | Temp °C | Hum % | Pres Pa | CO μg/m³ | H₂S μg/m³ | NO μg/m³ | NO₂ μg/m³ | O₃ μg/m³ | SO₂ μg/m³ | PM1 μg/m³ | PM2.5 μg/m³ | PM10 μg/m³ |
|---|---|---|---|---|---|---|---|---|---|---|---|---|---|
| Thursday 30 July 2026 | |||||||||||||
| 19:05 | 3 | 23 | 40 | 68,853 | 0 | 15.54 | 1.54 | 27.23 | 69.46 | 6.94 | 2 | 7.82 | 8.6 |
| 19:04 | 3 | 23 | 40 | 68,833 | 0 | 16.54 | 1.54 | 28.38 | 66.22 | 7.22 | 3.71 | 10.95 | 12.05 |
| 19:03 | 3 | 23 | 40 | 68,839 | 0 | 16.78 | 1.54 | 35.83 | 62.78 | 7.09 | 5.43 | 12.54 | 13.79 |
| 19:02 | 3 | 23.1 | 40 | 68,847 | 0 | 17.07 | 1.56 | 28.39 | 70.65 | 7.19 | 5.43 | 12.54 | 13.8 |
| 19:01 | 3 | 23.1 | 40 | 68,829 | 0 | 16.25 | 1.58 | 32.02 | 68.01 | 6.73 | 5.43 | 10.97 | 12.07 |
| 19:00 | 3 | 23.1 | 40 | 68,831 | 0 | 14.42 | 1.55 | 27.32 | 66.65 | 6.63 | 3.71 | 10.2 | 11.22 |
| 18:59 | 3 | 23.1 | 40 | 68,837 | 0 | 15.14 | 1.54 | 24.25 | 76.12 | 7.23 | 2 | 7.85 | 8.63 |
| 18:58 | 3 | 23.1 | 40 | 68,841 | 0 | 16.86 | 1.53 | 17.21 | 76.17 | 7.66 | 2 | 8.64 | 9.5 |
| 18:56 | 3 | 23.1 | 40 | 68,837 | 0 | 15.88 | 1.53 | 20.56 | 79.21 | 7.96 | 2 | 7.07 | 7.78 |
| 18:55 | 3 | 23.1 | 40 | 68,841 | 0 | 16.68 | 1.55 | 17.56 | 80.75 | 7.63 | 2 | 7.86 | 8.65 |
| 18:54 | 3 | 23.1 | 39 | 68,825 | 0 | 17.34 | 1.54 | 26.29 | 77.64 | 7.85 | 4.57 | 10.22 | 11.25 |
| 18:53 | 3 | 23.1 | 39 | 68,831 | 0 | 15.77 | 1.55 | 16.71 | 72.78 | 7.29 | 2.86 | 8.67 | 9.54 |
| 18:52 | 3 | 23.1 | 39 | 68,837 | 0 | 18.66 | 1.57 | 28.3 | 74.46 | 8.28 | 4.57 | 11.06 | 12.17 |
| 18:51 | 3 | 23.1 | 38 | 68,847 | 0 | 15.48 | 1.56 | 27.62 | 69.78 | 7.55 | 4.57 | 11.87 | 13.06 |
| 18:50 | 3 | 23.2 | 38 | 68,857 | 0 | 15.27 | 1.55 | 14.07 | 85.93 | 7.82 | 2 | 7.93 | 8.72 |
| 18:49 | 3 | 23.2 | 38 | 68,843 | 0 | 15.69 | 1.57 | 28.05 | 71.35 | 7.64 | 2 | 7.18 | 7.89 |
| 18:48 | 3 | 23.3 | 38 | 68,849 | 0 | 13.84 | 1.56 | 13.24 | 85.72 | 7.79 | 2 | 7.18 | 7.89 |
| 18:47 | 3 | 23.3 | 38 | 68,827 | 0 | 15.32 | 1.56 | 13.28 | 88.67 | 8.28 | 2 | 7.18 | 7.9 |
| 18:46 | 3 | 23.4 | 37 | 68,831 | 0 | 14.63 | 1.57 | 28.48 | 70.08 | 7.97 | 2 | 7.22 | 7.94 |
| 18:45 | 3 | 23.5 | 37 | 68,835 | 0 | 10.07 | 1.55 | 9.96 | 80.16 | 7.79 | 2 | 7.21 | 7.94 |